CAPE
2495 2416 2784 2707 2490 2499 2344 2373 2543 2499 2486 2466 2613 2525 2034 2372 2380 2290 2439 2343 2196 2127 2079 2307 2238 2137 1956 2378 2409 2536 2620 2557 2426 2478 2814 2726 2617 2977 3232 3003 2940 2740 2623 2448 2428 2546 3054 2987 3000 2832 3130 2637 2611 2400 2118 1707 1463 1646 1854 1666 1398 2507 2161 1798 1544 1477 1395 1848 2602 2900 2938 2954 2888 2944 3060 3082 3039 3040 3093 3057 2775 2456 2428 2371 2282
2417 2387 2698 2706 2498 2504 2317 2190 2346 2482 2489 2500 2310 2395 2188 2132 2265 2154 2180 2433 2268 2201 2069 2000 2420 2199 1970 2285 2357 2435 2522 2533 2440 2391 2715 2669 2444 2595 2658 3390 3083 2777 2751 2560 2935 3513 3324 2965 2992 2917 2927 2817 2777 2744 2644 2606 2376 2151 1902 1910 1418 1108 1761 1681 1715 1806 1886 2043 2336 2571 2756 2878 3007 3105 3112 3029 2962 2967 3050 2940 2610 2430 2432 2409 2506
2339 2323 2520 2640 2514 2525 2562 2330 2188 2320 2263 2209 2050 1908 2031 1898 1860 2040 1985 2016 2134 2252 2168 2058 2117 2165 2149 2166 2252 2228 2379 2376 2470 2438 2528 2536 2442 2368 2658 2932 3554 3356 3332 3158 3124 2972 2927 2982 2959 3011 3162 2971 2826 2680 2608 2540 2436 2272 1880 1784 1932 1952 2240 2060 2041 2244 2483 2578 2558 2781 2815 2966 3147 3163 3026 2832 2852 2946 2974 2700 2449 2312 2524 2622 2562
2267 2308 2399 2505 2502 2439 2614 2606 2373 2225 2096 2049 2046 2010 1926 1787 1769 1921 1855 1855 1936 2180 2125 2086 1948 2060 2028 1998 1920 1832 1847 2225 2222 2385 2304 2434 2341 2215 2265 2521 2922 3451 3626 3517 3415 3184 2728 2340 2341 2434 2583 2716 2660 2650 2529 2524 2553 2365 2161 2397 2581 2589 2396 2686 2609 2671 2780 2691 2705 2863 2949 3128 3132 2857 2618 2630 2690 2649 2515 2307 2350 2393 2600 2715 2809
2220 2191 2298 2344 2343 2322 2410 2653 2590 2399 2269 2105 2008 1986 1950 1701 1730 1767 1648 1651 1675 2185 2052 2030 1806 1888 2055 1844 1695 1562 1885 1861 2134 2312 2303 2237 2277 2257 2270 2466 2869 3103 3398 3466 3776 2801 2730 2676 2718 2800 2802 2736 2790 2658 2523 2154 1842 1948 2319 2637 2805 3184 3198 3105 3361 3512 3040 2782 2759 2980 3115 2998 2832 2668 2481 2353 2057 2019 2248 2391 2284 2378 2649 2683 2737
2321 2116 2151 2200 2107 2164 2326 2492 2568 2425 2420 2384 2069 1712 1758 1511 1498 1725 1376 1466 1708 1998 2140 2035 2128 2086 2108 1936 1676 1992 2216 2173 2297 2507 2564 2534 2588 2511 2545 2661 2671 2881 2993 3166 3229 3557 2929 2956 3008 3054 3021 2908 2836 2725 2415 2242 2556 2908 2587 2498 3298 3712 3076 3217 3050 2756 2675 2786 2944 3075 3047 2936 2746 2500 2154 1912 1733 1947 2408 2409 2223 2242 2540 2554 2519
2368 2324 2191 2277 2177 2155 2241 2311 2315 2267 2304 2320 2170 1744 1476 1568 1571 1525 1752 1687 1558 1551 1996 2012 2230 2102 2124 2233 2441 2561 2520 2678 2621 2545 2616 2779 3024 2910 2862 2910 2956 2987 2866 2942 2832 2719 2676 2548 2396 2273 2360 2556 2600 2477 2146 1946 2036 2255 2177 2352 2940 3209 3216 2906 3067 3009 3158 3310 3291 3034 2760 2649 2433 1932 1662 1419 1568 2087 2445 2394 2046 2060 2316 2467 2389
2240 2330 2312 2268 2262 2194 2094 2083 2095 2108 2141 2229 2209 2005 1784 1639 1613 1590 1498 1624 1577 1629 1969 2029 2298 2266 2029 2449 2666 2958 2822 2838 2841 2765 2703 2662 2737 2990 2986 2838 2751 2703 2618 2577 2517 2480 2462 2431 2281 2112 2056 2397 2309 2020 1532 1585 2149 2585 2443 2615 3092 2801 2791 2793 3058 3361 3117 2698 2582 2384 2403 2308 1718 1420 1500 1630 2179 2496 2417 2313 2032 2029 2288 2354 2284
2069 2114 2105 2041 1976 1951 1879 1821 1836 1907 2001 2107 2078 1990 1870 1731 1624 1561 1676 1628 1689 1469 1870 1919 1955 2373 2118 2361 2570 2932 2982 2950 2912 2964 2920 2766 2624 2713 2675 2576 2528 2514 2532 2525 2382 2166 2021 2104 2069 1594 1550 3343 3593 3167 2108 2064 2042 1783 2062 2630 3376 3217 3478 3465 3232 2486 2086 2008 1749 1668 1750 1732 1655 1576 1652 2176 2635 2497 2304 2293 2039 2142 2293 2169 1960
1930 1856 1832 1792 1827 1805 1802 1737 1753 1764 1669 1843 1819 1666 1614 1536 1671 1523 1661 1639 1630 1693 1620 1540 1811 2191 2251 2295 2530 2855 3077 3160 4020 4213 3806 2985 2886 2814 2711 2560 2460 2469 2546 2550 2442 2262 2220 2063 1805 3128 3119 3228 3731 4031 3968 3256 3164 2132 1990 2669 2601 2110 2396 2284 1788 1862 1873 1678 1511 1552 1726 1610 1439 1531 2029 2695 2631 2455 2268 2231 2090 2204 2102 1954 1806
1649 1612 1614 1632 1642 1676 1646 1499 1492 1570 1572 1524 1562 1447 1347 1428 1727 1765 1702 1568 1752 1812 1768 1666 1782 2042 2299 2286 2346 2573 3005 3133 3177 3284 3537 3651 3726 3025 2928 2830 2768 2721 2576 2580 2271 1894 1962 2203 2752 4368 3490 3584 3999 5160 4329 4073 3342 2387 2760 2955 2612 1863 1756 1524 1562 2526 2667 2621 2637 2630 2660 2549 2298 1895 2382 2801 2572 2243 2277 2191 2199 2132 2002 1858 1795
1353 1382 1439 1426 1429 1448 1333 1156 1175 1243 1377 1455 1396 1492 1114 1017 1379 1606 1688 1581 1688 1807 1824 1742 1598 1785 2114 2069 2124 2218 2529 2769 2895 2945 3030 3243 3521 3590 3410 3113 3022 2722 2588 2517 1883 2109 2266 1830 2506 2585 2968 2704 2612 3443 4096 3762 2788 2698 2390 2317 2308 3118 2034 2235 2698 2671 2693 2757 2689 2723 2598 2589 2442 2268 2580 2510 1996 1858 1870 1997 2066 2021 1855 1785 1778
1247 1276 1345 1438 1298 1152 1273 1272 1205 1145 1308 1609 1850 2091 1741 890 984 1282 1510 1612 1679 1750 1766 1727 1562 1384 1691 2111 2219 2321 2336 2469 2527 2615 2718 2798 2999 3223 3358 3282 2856 2084 1872 2182 1984 1840 1798 1504 1228 1152 1453 1783 2170 2594 3000 3045 3483 3552 3538 3504 3388 3618 3575 3172 3002 2859 2700 2682 2588 2367 2126 2043 1925 1997 2952 2270 1718 1714 1790 1612 1551 1524 1578 1569 1614
1395 1376 1415 1477 1534 1328 1318 1324 1286 1180 1123 1455 1737 2089 2173 1958 1687 1593 1476 1487 1617 1694 1688 1669 1602 1498 1375 1658 2078 2217 2199 2226 2281 2356 2350 2335 2363 2493 2957 3094 2780 1815 2069 2376 2351 1942 1621 1491 1355 1210 1145 1312 1527 1871 2178 2290 2308 2398 2412 2468 2357 2295 2101 2047 2031 2035 2011 1956 1955 1913 1895 1909 1870 1902 2084 1619 1559 1587 1519 1452 1361 1435 1360 1384 1372
1545 1586 1535 1484 1491 1489 1370 1241 1127 1081 1030 1180 1502 1903 2109 1988 1869 1661 1549 1490 1480 1544 1624 1600 1503 1483 1435 1304 1581 1874 2027 2050 2032 2002 1939 1755 1576 1492 1680 1842 2430 2204 2184 2263 2100 1658 1402 1338 1223 1192 1274 1340 1466 1678 1817 1979 2090 2099 2053 2122 2175 2191 2192 2151 2122 2074 2049 2038 2000 1994 1932 1746 1708 1830 1764 1642 1497 1382 1276 1382 1408 1339 1156 904 780
1497 1910 1900 1891 1740 1611 1500 1336 1209 1103 1037 974 1065 1572 1914 1953 1833 1653 1504 1383 1301 1282 1272 1133 1082 1118 1144 1086 1309 1575 1756 1858 1873 1847 1783 1646 1347 1502 1383 1832 1928 1845 1784 1952 1799 1475 1344 1267 1230 1242 1315 1351 1384 1419 1538 1652 1774 1876 1934 1901 1848 1923 1997 1912 1852 1791 1790 1774 1670 1470 1671 1789 1853 1914 1612 1409 1260 1200 1176 1278 1027 934 824 512 356
1579 1481 1586 1793 1973 2089 2050 1916 1686 1468 1273 1170 1099 1133 1639 1898 1816 1821 1646 1350 1166 1055 923 794 850 882 831 812 940 1028 1186 1309 1446 1558 1602 1509 1233 1414 1816 1595 1537 1560 1548 1616 1677 1555 1444 1366 1318 1319 1324 1367 1380 1402 1411 1414 1397 1350 1286 1265 1318 1449 1568 1413 1387 1434 1430 1248 1300 1563 1577 1758 1682 1384 1138 1378 954 840 913 910 777 834 436 197 191
1852 1921 1995 1707 1589 1687 1818 2030 2119 2110 1835 1545 1361 1259 1477 1760 1790 1879 1774 1522 1450 1291 1103 949 799 739 849 864 842 840 910 1029 1136 1154 1052 1017 1054 1954 1812 1463 1367 1366 1383 1362 1322 1371 1323 1257 1249 1208 1212 1217 1226 1218 1212 1170 1079 920 738 903 1116 1211 1292 1258 1329 1298 942 887 1283 1538 1593 1168 1015 781 638 973 637 679 602 561 842 478 272 170 48
1611 1771 1721 1561 1614 1809 1918 1916 1930 1874 1658 1797 1702 1649 1646 1715 1830 1833 1836 1743 1655 1642 1606 1502 1328 1144 988 844 809 860 868 864 881 905 896 922 1765 2291 1897 1522 1402 1374 1321 1238 1202 1199 1182 1170 1216 1215 1196 1146 1083 1005 918 849 735 623 628 785 834 951 1000 819 618 438 569 787 1078 1073 866 1141 612 520 496 482 503 398 39 108 264 187 23 4 20
1309 1406 1582 1476 1513 1604 1513 1458 1506 1548 1476 1478 1714 1842 1778 1593 1424 1645 1796 1811 1708 1555 1414 1345 1328 1252 1179 1100 966 775 733 751 781 858 898 934 1635 2325 2118 1775 1595 1539 1446 1336 1175 1154 1226 1274 1257 1211 1149 999 912 808 727 656 590 523 441 545 593 390 217 230 268 364 121 366 433 418 390 325 329 327 345 289 0 0 0 0 0 0 0 0 0
848 1072 1372 1582 1670 1663 1644 1638 1510 1411 1307 1315 1381 1520 1581 1703 1698 1728 1786 1653 1571 1439 1239 1095 1052 1094 1066 1055 985 824 642 572 606 709 882 1046 1290 2093 2156 1928 1733 1624 1558 1547 1509 1457 1364 1302 1263 1132 991 910 862 804 722 607 518 465 407 334 291 228 177 0 15 94 282 259 237 228 222 179 81 0 0 0 0 0 0 0 0 0 0 0 0
423 800 983 1051 1120 1162 1121 1086 1014 1115 1273 1287 1252 1458 1668 1589 1371 1591 1688 1685 1588 1397 1206 1072 931 870 829 849 763 654 542 465 506 635 724 830 1060 1701 1730 1758 1734 1642 1572 1499 1419 1378 1352 1299 1286 1204 1123 1008 891 742 654 571 517 451 334 313 239 186 146 53 0 0 27 169 185 172 164 158 0 0 0 0 0 0 0 0 0 0 0 0 0
398 422 507 596 657 764 885 1019 1100 1061 1074 1167 1218 1172 1117 1202 1303 1276 1521 1618 1642 1654 1496 1298 1169 953 858 900 898 884 911 890 812 750 821 785 864 1210 1190 1413 1492 1435 1386 1293 1234 1227 1176 1179 1115 974 886 798 687 602 519 376 320 330 253 141 0 0 0 0 0 0 0 0 0 0 0 0 0 0 0 0 0 0 0 0 0 0 0 0 0
330 288 360 544 578 608 648 722 911 993 1051 986 885 995 1002 967 976 1137 1219 1187 1350 1329 1152 1228 1070 893 834 962 917 885 779 647 492 335 330 365 393 526 708 910 980 1121 1080 1062 1058 1007 982 814 543 692 732 617 574 453 390 331 303 230 143 10 0 0 0 0 0 0 0 0 0 0 0 0 0 0 0 0 0 0 0 0 0 0 0 0 0
290 281 328 346 410 456 520 514 576 649 692 798 845 815 832 1007 1058 985 853 862 698 750 1048 914 788 730 648 538 564 499 417 325 210 208 195 190 155 116 60 385 694 682 603 672 819 616 495 324 364 548 551 503 459 449 387 323 212 173 80 0 0 0 0 0 0 0 0 0 0 0 0 0 0 0 0 0 0 0 0 0 0 0 0 0 0
0 140 177 362 500 438 338 268 269 309 329 357 426 589 587 535 509 680 692 607 565 669 733 704 642 644 516 507 488 404 349 272 226 176 166 168 54 0 7 73 278 475 426 417 525 461 281 250 262 478 501 501 477 363 249 175 156 39 0 0 0 0 0 0 0 0 0 0 0 0 0 0 0 0 0 0 0 0 0 0 0 0 0 0 0
0 0 0 0 266 324 391 418 359 259 252 269 292 297 315 296 250 88 464 372 346 352 352 448 431 340 389 328 327 188 168 49 0 5 71 90 45 2 0 0 64 29 0 233 293 355 300 119 252 242 294 299 234 164 151 148 61 0 0 0 0 0 0 0 0 0 0 0 0 0 0 0 0 0 0 0 0 0 0 0 0 0 0 0 0
0 0 0 0 0 0 0 145 325 413 378 307 234 247 293 268 246 204 73 198 88 5 8 34 259 322 297 228 144 212 150 28 47 47 22 0 21 50 31 120 128 0 29 30 0 0 60 119 191 224 198 95 76 86 79 52 0 0 0 0 0 0 0 0 0 0 0 0 0 0 0 0 0 0 0 0 0 0 0 0 0 0 0 0 0
0 0 0 6 5 0 0 0 0 99 315 268 236 217 239 319 279 277 218 177 192 216 213 193 80 0 0 125 149 144 83 54 30 0 23 106 108 130 0 0 0 0 0 0 0 0 0 91 117 169 147 52 41 35 22 0 0 0 0 0 0 0 0 0 0 0 0 0 0 0 0 0 0 0 0 0 0 0 0 0 0 0 0 0 0
0 0 0 0 0 0 20 19 0 0 0 0 192 219 158 145 208 271 287 248 194 40 163 181 91 0 0 83 11 4 55 30 0 0 92 161 68 0 0 0 0 0 0 0 0 0 14 42 27 27 19 5 5 0 0 0 0 0 0 0 0 0 0 0 0 0 0 0 0 0 0 0 0 0 0 0 0 0 0 0 0 0 0 0 0
0 0 0 0 0 0 0 0 0 0 2 9 0 0 145 138 126 117 124 144 126 119 131 150 163 10 0 0 0 1 0 0 0 0 72 159 7 0 0 0 0 0 0 0 0 0 0 0 0 0 0 0 0 0 0 0 0 0 0 0 0 0 0 0 0 0 0 0 0 0 0 0 0 0 0 0 0 0 0 0 0 0 0 0 0
0 0 0 0 0 0 0 0 0 0 0 0 0 0 0 0 0 0 0 0 0 0 0 0 2 4 2 0 0 0 0 6 0 0 74 0 0 0 0 0 0 0 0 0 0 0 0 0 0 0 0 0 0 0 0 0 0 0 0 0 0 0 0 0 0 0 0 0 0 0 0 0 0 0 0 0 0 0 0 0 0 0 0 0 0
14 1 2 3 0 0 0 0 0 0 0 0 0 0 0 0 0 0 0 0 0 0 0 0 1 4 2 0 2 0 0 9 0 0 53 177 112 13 0 0 0 0 0 0 0 0 0 0 0 0 0 0 0 0 0 0 0 0 0 0 0 0 0 0 0 0 0 0 0 0 0 0 0 0 0 0 0 0 0 0 0 0 0 0 0
43 17 7 2 0 0 0 0 0 0 0 0 0 0 0 0 0 0 0 0 0 0 0 0 0 0 1 0 0 0 0 10 16 50 50 86 92 77 55 0 0 0 0 0 0 0 0 0 0 0 0 0 0 0 0 0 0 0 0 0 0 0 0 0 0 0 0 0 0 0 0 0 0 0 0 0 0 0 0 0 0 0 0 0 0
83 144 102 62 3 1 0 0 0 0 0 0 0 0 0 0 0 0 0 0 0 0 0 0 0 0 0 0 0 0 0 0 0 0 0 0 0 0 0 0 0 0 0 0 0 0 0 0 0 0 0 0 0 0 0 0 0 0 0 0 0 0 0 0 0 0 0 0 0 0 0 0 0 0 0 0 0 0 0 0 0 0 0 0 0
126 104 87 81 27 16 1 0 0 0 0 0 0 0 0 0 0 0 0 0 0 0 0 0 0 0 0 0 0 0 0 0 0 0 0 0 0 0 0 0 0 0 0 0 0 0 0 0 0 0 0 0 0 0 0 0 0 0 0 0 0 0 0 0 0 0 0 0 0 0 0 0 0 0 0 0 0 0 0 0 0 0 0 0 0
89 58 69 65 50 37 29 20 0 0 4 3 0 0 0 0 0 0 0 0 0 0 0 0 0 0 0 0 0 0 0 0 0 0 0 0 0 0 0 0 0 0 0 0 0 0 0 0 0 0 0 0 0 0 0 0 0 0 0 0 0 0 0 0 0 0 0 0 0 0 0 0 0 0 0 0 0 0 0 0 0 0 0 0 0
36 53 56 65 63 58 51 40 26 52 8 0 0 0 1 0 12 2 0 0 0 0 0 0 0 0 0 0 0 0 0 0 0 0 0 0 0 0 0 0 0 0 0 0 0 0 0 0 0 0 0 0 0 0 0 0 0 0 0 0 0 0 0 0 0 0 0 0 0 0 0 0 0 0 0 0 0 0 0 0 0 0 0 0 0
21 24 38 53 61 66 63 52 46 35 10 0 0 0 0 0 0 0 0 0 0 0 0 0 0 0 0 0 0 14 0 0 0 0 0 0 0 0 0 0 0 0 0 0 0 0 0 0 0 0 0 0 0 0 0 0 0 0 0 0 0 0 0 0 0 0 0 0 0 0 0 0 0 0 0 0 0 0 0 0 0 0 0 0 0
0 0 1 19 33 42 49 52 52 47 1 1 0 0 0 0 0 0 0 0 0 0 0 0 0 0 0 0 0 0 0 0 0 0 0 0 0 0 0 0 0 0 0 0 0 0 0 0 0 0 0 0 0 0 0 0 0 0 0 0 0 0 0 0 0 0 0 0 0 0 0 0 0 0 0 0 0 0 0 0 0 0 0 0 0
0 0 8 0 0 2 42 13 3 1 2 4 6 3 0 0 1 0 0 0 0 0 0 0 0 0 0 0 0 0 0 0 0 0 0 0 0 0 0 0 0 0 0 0 0 0 0 0 0 0 0 0 0 0 0 0 0 0 0 0 0 0 0 0 0 0 0 0 0 0 0 0 0 0 0 0 0 0 0 0 0 0 0 0 0
0 0 0 0 0 0 2 1 1 1 5 5 7 5 1 0 0 0 0 0 0 0 0 0 0 0 0 0 0 0 0 4 3 0 0 0 0 0 0 0 0 0 0 0 0 0 0 0 0 0 0 0 0 0 0 0 0 0 0 0 0 0 0 0 0 0 0 0 0 0 0 0 0 0 0 0 0 0 0 0 0 0 0 0 0
0 0 0 0 0 0 0 0 0 3 4 14 16 10 7 0 0 0 0 0 0 0 0 0 0 0 0 0 0 0 0 0 1 0 0 0 0 0 0 0 0 0 0 0 0 0 0 0 0 0 0 0 0 0 0 0 0 0 0 0 0 0 0 0 0 0 0 0 0 0 0 0 0 0 0 0 0 0 0 0 0 2 4 5 8
16 26 18 2 0 0 0 0 0 0 2 9 14 11 5 1 0 0 0 0 0 0 0 0 0 0 0 0 0 0 0 0 0 0 0 0 0 0 0 0 0 0 0 0 0 0 0 0 0 0 0 0 0 0 0 0 0 0 0 0 0 0 0 0 0 0 0 0 0 0 0 0 0 0 0 0 1 3 4 4 3 3 2 1 2
8 14 6 4 0 0 0 0 0 1 1 16 5 11 9 7 1 0 0 0 0 0 0 0 0 0 0 0 0 0 0 0 0 0 0 0 0 0 0 0 0 0 0 0 0 0 0 0 0 0 0 0 0 0 0 0 0 0 0 0 0 0 0 0 0 0 0 0 0 0 0 0 0 0 0 2 3 4 4 4 4 6 5 2 2
0 4 4 0 0 3 1 0 0 0 0 2 2 3 5 11 4 1 2 4 2 0 0 0 0 0 0 0 0 0 0 0 0 0 0 0 0 0 0 0 0 0 0 0 0 0 0 0 0 0 0 0 0 0 0 0 0 0 0 0 0 0 0 0 0 0 0 0 0 0 0 0 0 0 3 4 4 2 1 1 2 6 1 2 10
0 0 0 0 1 2 6 12 4 0 0 0 0 0 4 7 2 10 18 0 0 0 0 0 0 0 0 0 0 0 0 0 0 0 0 0 0 0 0 0 0 0 0 0 0 0 0 0 0 0 0 0 0 0 0 0 0 0 0 0 0 0 0 0 0 0 0 0 0 0 0 0 0 0 1 4 4 1 7 4 6 5 4 6 13
0 0 0 0 0 0 4 0 0 8 0 0 0 1 1 1 1 0 2 5 0 0 0 0 0 0 0 0 0 0 0 0 0 0 0 0 0 0 0 0 0 0 0 0 0 0 0 0 0 0 0 0 0 0 0 0 0 0 0 0 0 0 0 0 0 0 0 0 0 0 0 0 0 2 4 4 4 2 3 2 4 4 9 9 16
0 0 0 0 0 0 0 0 0 0 0 0 0 0 0 0 0 0 0 0 0 0 0 0 0 0 0 0 0 0 0 0 0 0 0 0 0 0 0 0 0 0 0 0 0 0 0 0 0 0 0 0 0 0 0 0 0 0 0 0 0 0 0 0 0 0 0 0 0 0 0 0 0 3 4 4 3 2 1 0 1 6 14 12 15
0 0 0 0 0 0 0 0 0 0 0 0 0 0 0 0 0 0 0 0 0 0 0 0 0 0 0 0 0 0 0 0 0 0 0 0 0 0 0 0 0 0 0 0 0 0 0 0 0 0 0 0 0 0 0 0 0 0 0 0 0 0 0 0 0 0 0 0 0 0 0 0 0 1 0 1 3 1 0 1 12 13 14 13 24
29 0 0 2 2 1 0 1 0 0 0 0 0 4 4 0 0 0 0 0 0 0 0 0 0 0 0 0 0 0 0 0 0 0 0 0 0 0 0 0 0 0 0 0 0 0 0 0 0 0 0 0 0 0 0 0 0 0 0 0 0 0 0 0 0 0 0 0 0 0 0 0 0 1 3 1 2 0 3 5 8 10 15 16 14
Wind_Speed
7 7 8 8 8 6 5 6 6 6 6 6 5 5 5 6 6 6 7 6 6 7 6 6 6 6 7 8 7 7 7 7 7 8 7 6 6 7 7 7 6 5 6 5 5 5 5 5 4 4 6 6 4 4 5 5 6 5 5 7 8 10 12 11 9 5 5 9 9 8 6 8 7 9 6 5 4 4 4 6 6 6 6 6 5
8 8 9 9 8 7 6 6 7 7 6 6 6 6 6 6 7 8 7 7 7 7 7 8 8 7 7 7 7 7 7 7 7 9 8 8 7 7 7 8 8 7 8 6 5 5 6 5 5 4 3 3 2 3 3 3 3 5 4 5 7 7 9 11 9 8 5 4 5 6 6 8 7 7 7 5 5 6 5 5 6 7 7 7 6
11 11 11 10 9 8 8 7 8 7 6 7 6 7 7 7 8 7 7 8 9 8 8 8 9 8 9 9 8 7 6 7 8 8 8 8 7 8 8 9 9 9 8 7 6 6 6 6 4 4 4 3 3 2 2 2 4 5 3 6 6 6 9 11 11 9 8 6 7 6 7 7 8 6 5 7 7 8 8 8 9 8 9 9 9
13 13 13 12 11 11 9 9 7 7 6 8 8 9 9 9 9 8 8 9 9 9 9 9 10 9 8 9 9 8 8 8 9 9 8 9 9 8 8 9 8 8 7 7 6 6 7 6 5 5 6 6 5 4 4 5 6 8 8 7 9 7 7 12 12 12 12 10 8 8 8 7 6 7 7 7 7 7 11 11 12 13 12 11 11
14 14 14 14 14 13 11 10 8 8 8 9 8 9 9 9 10 9 9 9 9 10 10 11 10 9 8 8 9 9 8 8 9 9 9 10 9 8 9 9 9 8 8 7 7 7 6 7 6 6 7 8 7 8 6 6 7 9 11 11 12 12 12 12 12 14 14 11 9 10 10 10 10 7 9 10 8 10 13 14 14 15 14 13 12
15 14 14 15 16 14 12 11 9 9 10 10 9 9 10 10 12 12 11 9 10 10 9 10 11 8 8 8 9 9 9 9 10 10 11 11 10 8 8 9 9 9 8 8 8 8 8 8 7 8 9 10 9 9 10 9 8 11 10 11 13 13 12 11 12 13 14 13 13 10 12 10 10 10 10 12 11 12 13 12 14 16 16 13 10
16 15 14 14 16 14 13 12 12 12 12 13 12 13 12 11 11 11 13 12 11 10 9 9 10 9 8 9 9 9 10 10 11 10 11 12 11 9 9 10 11 11 10 10 9 10 9 9 9 10 10 11 12 11 12 12 11 9 12 13 14 15 14 13 13 14 14 13 12 13 11 11 13 10 9 11 13 15 15 12 13 14 14 13 8
17 16 15 14 14 12 12 13 13 13 14 14 14 13 13 13 12 12 14 13 13 12 11 9 10 10 9 9 9 10 11 11 11 10 10 11 12 11 11 12 12 12 12 11 11 10 9 10 11 12 12 13 13 12 14 13 14 14 13 14 17 17 15 15 15 15 14 14 14 11 12 12 9 11 11 11 12 12 15 16 13 12 11 11 10
18 16 15 13 12 11 12 13 15 14 13 12 13 13 13 13 13 16 13 13 13 14 14 12 12 11 11 11 11 12 11 11 12 12 11 11 13 12 13 13 14 13 13 12 11 11 10 11 12 11 13 14 15 15 16 17 16 15 14 16 19 19 18 17 17 16 15 15 12 14 12 10 10 11 8 11 12 12 12 14 14 13 13 11 8
18 16 15 13 13 13 14 16 16 16 14 12 12 13 14 13 14 14 11 14 14 14 16 15 14 14 14 14 14 13 12 14 15 13 13 14 15 15 16 15 15 14 14 13 12 12 12 12 13 10 10 12 14 15 15 16 16 17 17 19 20 20 20 19 18 18 18 16 14 15 13 10 10 11 12 12 13 12 12 12 11 10 12 13 14
17 15 14 15 16 17 20 19 20 19 18 16 16 17 16 15 14 15 15 14 15 15 15 16 15 15 14 15 16 17 19 21 22 21 21 19 18 19 18 17 16 16 14 14 13 13 15 15 19 23 24 23 21 22 20 21 24 24 24 22 21 21 21 20 19 21 21 20 19 18 16 14 12 13 13 13 14 14 13 12 12 13 13 13 13
19 18 19 22 23 24 24 24 24 23 24 23 22 21 20 19 18 19 19 18 18 17 16 16 16 16 17 17 18 21 22 23 23 23 23 23 22 21 20 20 19 17 14 15 15 16 16 20 23 24 25 25 24 24 25 26 25 25 24 23 20 19 22 22 22 23 23 22 20 19 19 17 16 16 16 16 14 14 14 14 14 14 14 14 15
26 27 26 26 25 25 26 26 26 25 26 28 28 27 24 22 21 22 22 24 25 21 19 21 21 22 22 22 23 24 24 23 23 24 24 24 23 24 26 25 23 17 13 17 19 21 23 25 25 25 25 29 27 26 26 25 26 27 25 24 21 21 19 18 20 24 25 25 23 20 20 20 19 19 21 19 19 16 16 16 15 15 16 15 15
31 31 29 28 28 28 28 28 28 27 29 29 30 30 29 28 26 27 28 28 26 25 25 25 25 25 24 24 25 26 25 24 22 22 23 23 24 25 25 25 24 21 23 25 25 26 26 28 28 28 27 29 28 28 27 28 27 27 27 27 27 30 31 32 31 29 26 25 25 23 21 23 21 21 20 20 19 18 18 17 17 17 17 17 17
31 32 32 31 31 31 31 31 29 28 29 30 31 31 31 30 30 29 29 28 28 27 28 28 26 26 26 27 27 28 28 28 24 23 23 23 24 25 26 23 26 26 26 28 29 29 29 31 31 30 30 30 31 28 29 29 30 31 31 30 30 29 30 29 27 26 25 25 25 23 20 21 21 20 20 20 21 20 20 20 19 20 19 20 21
33 35 37 36 35 33 31 29 28 28 29 32 34 33 32 30 31 29 31 31 31 32 32 31 30 29 27 28 29 30 29 29 27 25 23 22 23 24 26 26 28 28 29 29 31 31 31 33 33 33 32 32 32 30 29 30 34 34 33 32 32 31 30 28 25 24 25 24 24 22 21 22 22 23 23 22 22 21 21 22 22 21 21 23 23
40 40 39 38 36 33 31 31 30 30 32 35 36 35 31 29 31 29 30 30 32 34 33 32 31 31 31 30 31 30 30 30 30 28 24 22 23 24 26 27 28 29 29 29 31 32 33 33 35 36 36 34 33 32 30 33 36 35 35 33 33 32 29 27 23 23 23 23 20 23 24 26 27 26 26 24 24 24 24 25 24 22 24 24 24
41 41 39 37 34 31 31 31 32 32 36 37 35 32 29 27 29 28 28 29 32 34 35 35 34 33 33 32 31 32 31 32 34 32 29 24 21 25 28 30 30 32 32 31 32 33 35 41 39 39 39 37 35 34 34 35 36 35 35 35 34 32 29 27 27 26 25 24 27 30 33 33 30 28 28 28 29 30 29 28 24 26 26 26 nan
32 38 38 35 32 29 28 27 29 32 37 33 28 27 26 28 28 29 29 29 29 30 32 34 34 34 34 34 37 36 34 34 38 37 34 29 24 26 30 33 34 33 34 34 34 34 36 39 41 40 40 39 38 38 39 38 38 36 36 37 35 34 29 28 28 27 26 27 29 31 31 30 29 30 31 36 39 36 nan 31 29 29 nan nan nan
37 37 35 30 28 32 34 31 30 32 34 26 20 21 24 28 31 32 29 27 26 26 27 28 30 29 29 30 32 33 35 35 37 39 37 34 28 26 31 34 35 36 36 37 36 35 35 36 38 38 39 39 39 40 41 41 41 38 37 37 36 34 30 29 28 29 28 30 33 34 34 32 31 31 32 33 nan nan nan nan nan nan nan nan nan
32 32 34 31 30 34 37 35 33 34 31 25 23 23 23 26 30 29 25 24 26 27 28 28 29 28 27 27 28 29 30 32 35 39 38 35 32 29 31 34 36 37 36 36 37 38 38 37 38 39 40 39 40 41 42 41 41 40 38 37 35 34 32 nan nan nan 34 35 36 36 35 34 nan nan nan nan nan nan nan nan nan nan nan nan nan
35 30 30 32 34 36 36 37 37 36 31 27 24 23 24 27 29 25 25 27 28 30 31 31 32 31 29 28 28 28 30 34 32 38 40 39 39 37 30 31 35 38 37 35 37 38 38 38 38 39 40 40 40 40 40 41 39 39 39 35 33 34 34 nan nan nan nan 37 38 38 36 35 nan nan nan nan nan nan nan nan nan nan nan nan nan
41 38 33 31 34 36 36 38 37 36 35 32 27 25 26 28 29 30 30 29 29 31 33 32 33 32 30 28 27 27 28 30 35 35 39 41 43 43 42 34 31 35 37 35 33 32 32 32 34 39 37 37 38 38 39 38 40 41 38 39 nan nan nan nan nan nan nan nan nan nan nan nan nan nan nan nan nan nan nan nan nan nan nan nan nan
41 42 40 35 34 35 36 37 37 36 37 37 36 33 30 30 31 30 30 30 31 34 34 33 33 34 32 30 29 29 30 32 36 38 38 42 42 41 40 40 40 35 34 31 28 28 27 26 23 29 33 31 33 35 37 39 39 41 43 nan nan nan nan nan nan nan nan nan nan nan nan nan nan nan nan nan nan nan nan nan nan nan nan nan nan
40 42 43 41 39 38 38 38 37 36 36 38 38 36 36 36 35 33 34 34 35 39 37 33 33 34 34 34 33 32 34 35 36 40 43 42 41 39 nan 37 39 37 33 30 30 29 27 21 15 24 29 30 31 32 36 42 47 46 nan nan nan nan nan nan nan nan nan nan nan nan nan nan nan nan nan nan nan nan nan nan nan nan nan nan nan
nan 43 44 43 42 41 42 41 39 37 37 37 38 38 38 39 38 37 37 37 37 37 35 32 32 34 35 35 36 35 35 36 36 36 37 38 nan nan nan nan 36 37 33 30 33 30 29 23 22 26 32 32 31 31 36 39 42 nan nan nan nan nan nan nan nan nan nan nan nan nan nan nan nan nan nan nan nan nan nan nan nan nan nan nan nan
nan nan nan nan 43 42 43 43 41 41 40 39 40 40 40 39 40 nan 38 38 37 35 34 32 33 35 37 38 37 36 37 nan nan nan nan nan nan nan nan nan nan nan nan 32 35 28 26 25 28 32 36 38 37 37 37 37 nan nan nan nan nan nan nan nan nan nan nan nan nan nan nan nan nan nan nan nan nan nan nan nan nan nan nan nan nan
nan nan nan nan nan nan nan 49 48 45 45 44 44 44 44 43 43 42 nan 40 nan nan nan nan 36 36 37 39 39 38 38 nan nan nan nan nan nan nan nan 35 35 nan nan nan nan nan nan 31 38 37 35 nan nan nan nan nan nan nan nan nan nan nan nan nan nan nan nan nan nan nan nan nan nan nan nan nan nan nan nan nan nan nan nan nan nan
nan nan nan nan nan nan nan nan nan nan 49 49 48 46 45 42 45 45 44 42 41 41 41 40 nan nan nan 38 40 40 nan nan nan nan nan 40 38 37 nan nan nan nan nan nan nan nan nan nan 36 34 31 nan nan nan nan nan nan nan nan nan nan nan nan nan nan nan nan nan nan nan nan nan nan nan nan nan nan nan nan nan nan nan nan nan nan
nan nan nan nan nan nan nan nan nan nan nan nan 52 53 54 53 49 47 46 47 50 nan 48 43 nan nan nan nan nan nan nan nan nan nan nan 41 nan nan nan nan nan nan nan nan nan nan nan nan nan nan nan nan nan nan nan nan nan nan nan nan nan nan nan nan nan nan nan nan nan nan nan nan nan nan nan nan nan nan nan nan nan nan nan nan nan
nan nan nan nan nan nan nan nan nan nan nan nan nan nan 53 53 57 56 53 53 54 55 55 55 51 nan nan nan nan nan nan nan nan nan nan 34 nan nan nan nan nan nan nan nan nan nan nan nan nan nan nan nan nan nan nan nan nan nan nan nan nan nan nan nan nan nan nan nan nan nan nan nan nan nan nan nan nan nan nan nan nan nan nan nan nan
nan nan nan nan nan nan nan nan nan nan nan nan nan nan nan nan nan nan nan nan nan nan nan nan nan nan nan nan nan nan nan nan nan nan nan nan nan nan nan nan nan nan nan nan nan nan nan nan nan nan nan nan nan nan nan nan nan nan nan nan nan nan nan nan nan nan nan nan nan nan nan nan nan nan nan nan nan nan nan nan nan nan nan nan nan
nan nan nan nan nan nan nan nan nan nan nan nan nan nan nan nan nan nan nan nan nan nan nan nan nan nan nan nan nan nan nan nan nan nan nan 36 38 nan nan nan nan nan nan nan nan nan nan nan nan nan nan nan nan nan nan nan nan nan nan nan nan nan nan nan nan nan nan nan nan nan nan nan nan nan nan nan nan nan nan nan nan nan nan nan nan
nan nan nan nan nan nan nan nan nan nan nan nan nan nan nan nan nan nan nan nan nan nan nan nan nan nan nan nan nan nan nan nan nan nan nan nan nan nan nan nan nan nan nan nan nan nan nan nan nan nan nan nan nan nan nan nan nan nan nan nan nan nan nan nan nan nan nan nan nan nan nan nan nan nan nan nan nan nan nan nan nan nan nan nan nan
nan 50 51 nan nan nan nan nan nan nan nan nan nan nan nan nan nan nan nan nan nan nan nan nan nan nan nan nan nan nan nan nan nan nan nan nan nan nan nan nan nan nan nan nan nan nan nan nan nan nan nan nan nan nan nan nan nan nan nan nan nan nan nan nan nan nan nan nan nan nan nan nan nan nan nan nan nan nan nan nan nan nan nan nan nan
52 53 nan nan nan nan nan nan nan nan nan nan nan nan nan nan nan nan nan nan nan nan nan nan nan nan nan nan nan nan nan nan nan nan nan nan nan nan nan nan nan nan nan nan nan nan nan nan nan nan nan nan nan nan nan nan nan nan nan nan nan nan nan nan nan nan nan nan nan nan nan nan nan nan nan nan nan nan nan nan nan nan nan nan nan
nan nan nan nan nan nan nan nan nan nan nan nan nan nan nan nan nan nan nan nan nan nan nan nan nan nan nan nan nan nan nan nan nan nan nan nan nan nan nan nan nan nan nan nan nan nan nan nan nan nan nan nan nan nan nan nan nan nan nan nan nan nan nan nan nan nan nan nan nan nan nan nan nan nan nan nan nan nan nan nan nan nan nan nan nan
nan nan nan nan nan nan nan nan nan nan nan nan nan nan nan nan nan nan nan nan nan nan nan nan nan nan nan nan nan nan nan nan nan nan nan nan nan nan nan nan nan nan nan nan nan nan nan nan nan nan nan nan nan nan nan nan nan nan nan nan nan nan nan nan nan nan nan nan nan nan nan nan nan nan nan nan nan nan nan nan nan nan nan nan nan
nan nan nan nan nan nan nan nan nan nan nan nan nan nan nan nan nan nan nan nan nan nan nan nan nan nan nan nan nan nan nan nan nan nan nan nan nan nan nan nan nan nan nan nan nan nan nan nan nan nan nan nan nan nan nan nan nan nan nan nan nan nan nan nan nan nan nan nan nan nan nan nan nan nan nan nan nan nan nan nan nan nan nan nan nan
nan nan nan nan nan nan nan nan nan nan nan nan nan nan nan nan nan nan nan nan nan nan nan nan nan nan nan nan nan nan nan nan nan nan nan nan nan nan nan nan nan nan nan nan nan nan nan nan nan nan nan nan nan nan nan nan nan nan nan nan nan nan nan nan nan nan nan nan nan nan nan nan nan nan nan nan nan nan nan nan nan nan nan nan nan
nan nan nan nan nan nan nan nan nan nan nan nan nan nan nan nan nan nan nan nan nan nan nan nan nan nan nan nan nan nan nan nan nan nan nan nan nan nan nan nan nan nan nan nan nan nan nan nan nan nan nan nan nan nan nan nan nan nan nan nan nan nan nan nan nan nan nan nan nan nan nan nan nan nan nan nan nan nan nan nan nan nan nan nan nan
nan nan nan nan nan nan nan nan nan nan nan nan nan nan nan nan nan nan nan nan nan nan nan nan nan nan nan nan nan nan nan nan nan nan nan nan nan nan nan nan nan nan nan nan nan nan nan nan nan nan nan nan nan nan nan nan nan nan nan nan nan nan nan nan nan nan nan nan nan nan nan nan nan nan nan nan nan nan nan nan nan nan nan nan nan
nan nan nan nan nan nan nan nan nan nan nan nan nan nan nan nan nan nan nan nan nan nan nan nan nan nan nan nan nan nan nan nan nan nan nan nan nan nan nan nan nan nan nan nan nan nan nan nan nan nan nan nan nan nan nan nan nan nan nan nan nan nan nan nan nan nan nan nan nan nan nan nan nan nan nan nan nan nan nan nan nan nan nan nan nan
nan nan nan nan nan nan nan nan nan nan nan nan nan nan nan nan nan nan nan nan nan nan nan nan nan nan nan nan nan nan nan nan nan nan nan nan nan nan nan nan nan nan nan nan nan nan nan nan nan nan nan nan nan nan nan nan nan nan nan nan nan nan nan nan nan nan nan nan nan nan nan nan nan nan nan nan nan nan nan nan nan nan nan nan nan
nan nan nan nan nan nan nan nan nan nan nan nan nan nan nan nan nan nan nan nan nan nan nan nan nan nan nan nan nan nan nan nan nan nan nan nan nan nan nan nan nan nan nan nan nan nan nan nan nan nan nan nan nan nan nan nan nan nan nan nan nan nan nan nan nan nan nan nan nan nan nan nan nan nan nan nan nan nan nan nan nan nan nan nan nan
nan nan nan nan nan nan nan nan nan nan nan nan nan nan nan nan nan nan nan nan nan nan nan nan nan nan nan nan nan nan nan nan nan nan nan nan nan nan nan nan nan nan nan nan nan nan nan nan nan nan nan nan nan nan nan nan nan nan nan nan nan nan nan nan nan nan nan nan nan nan nan nan nan nan nan nan nan nan nan nan nan nan nan nan nan
nan nan nan nan nan nan nan nan nan nan nan nan nan nan nan nan nan nan nan nan nan nan nan nan nan nan nan nan nan nan nan nan nan nan nan nan nan nan nan nan nan nan nan nan nan nan nan nan nan nan nan nan nan nan nan nan nan nan nan nan nan nan nan nan nan nan nan nan nan nan nan nan nan nan nan nan nan nan nan nan nan nan nan nan nan
nan nan nan nan nan nan nan nan nan nan nan nan nan nan nan nan nan nan nan nan nan nan nan nan nan nan nan nan nan nan nan nan nan nan nan nan nan nan nan nan nan nan nan nan nan nan nan nan nan nan nan nan nan nan nan nan nan nan nan nan nan nan nan nan nan nan nan nan nan nan nan nan nan nan nan nan nan nan nan nan nan nan nan nan nan
nan nan nan nan nan nan nan nan nan nan nan nan nan nan nan nan nan nan nan nan nan nan nan nan nan nan nan nan nan nan nan nan nan nan nan nan nan nan nan nan nan nan nan nan nan nan nan nan nan nan nan nan nan nan nan nan nan nan nan nan nan nan nan nan nan nan nan nan nan nan nan nan nan nan nan nan nan nan nan nan nan nan nan nan nan
nan nan nan nan nan nan nan nan nan nan nan nan nan nan nan nan nan nan nan nan nan nan nan nan nan nan nan nan nan nan nan nan nan nan nan nan nan nan nan nan nan nan nan nan nan nan nan nan nan nan nan nan nan nan nan nan nan nan nan nan nan nan nan nan nan nan nan nan nan nan nan nan nan nan nan nan nan nan nan nan nan nan nan nan nan
nan nan nan nan nan nan nan nan nan nan nan nan nan nan nan nan nan nan nan nan nan nan nan nan nan nan nan nan nan nan nan nan nan nan nan nan nan nan nan nan nan nan nan nan nan nan nan nan nan nan nan nan nan nan nan nan nan nan nan nan nan nan nan nan nan nan nan nan nan nan nan nan nan nan nan nan nan nan nan nan nan nan nan nan nan
Wind_Direction
223 214 216 206 210 203 190 192 194 194 197 199 198 194 192 189 191 193 197 185 188 195 199 201 196 191 195 187 187 191 194 195 205 221 227 228 231 238 239 261 270 268 271 261 253 250 249 257 247 250 265 251 248 240 231 246 256 276 286 288 296 296 294 294 301 308 281 307 312 314 304 299 300 307 299 308 314 329 329 334 337 349 354 346 351
221 224 219 217 217 212 199 194 196 201 197 194 190 195 195 201 200 207 211 203 213 215 212 212 219 223 221 211 209 209 211 212 217 231 236 243 239 250 248 260 273 278 281 283 264 264 272 256 240 246 257 275 264 250 265 257 260 253 244 271 302 316 310 305 319 311 325 291 296 304 317 316 321 324 320 324 337 332 333 332 333 335 332 320 327
224 226 228 227 224 219 211 201 199 202 203 202 195 191 193 197 208 210 209 210 213 222 221 223 226 227 225 227 228 229 229 233 236 245 246 252 255 249 257 267 272 280 287 295 298 292 285 288 291 290 289 295 293 309 311 329 308 298 304 293 301 297 305 315 307 318 330 335 331 320 320 315 327 336 316 321 329 326 321 313 310 317 310 311 310
227 226 229 233 231 228 223 212 208 204 199 203 204 201 199 197 204 208 211 215 220 217 228 233 233 232 229 228 233 233 239 241 248 254 262 262 263 258 258 264 269 276 287 292 297 304 316 311 314 312 308 311 311 311 315 319 328 318 321 307 299 308 303 305 311 312 320 321 320 323 322 308 319 314 309 302 301 292 298 306 304 295 296 295 301
233 228 230 235 233 232 229 224 217 215 207 207 205 207 209 207 210 209 213 216 223 225 224 229 234 233 233 231 233 236 242 250 254 258 262 267 272 271 268 271 275 283 293 299 303 304 309 312 320 312 309 313 311 313 315 306 307 313 314 310 311 308 303 306 310 309 304 307 313 314 309 308 315 308 296 287 281 284 292 291 293 289 287 295 300
240 236 233 234 234 234 233 229 226 224 222 221 220 217 215 219 219 218 225 226 223 226 229 230 233 237 236 235 238 242 247 258 264 265 273 276 278 279 281 282 285 287 289 296 299 299 302 306 307 306 307 314 314 301 294 298 300 304 309 301 297 297 296 295 293 294 294 304 308 303 298 305 302 310 311 293 290 293 281 280 281 285 287 288 298
248 244 238 236 233 234 234 234 231 229 229 227 229 231 233 230 228 226 229 238 243 234 233 237 236 247 246 247 252 256 258 263 265 265 266 271 281 284 286 284 281 287 288 292 292 292 297 303 304 306 311 314 315 316 304 291 293 314 312 309 307 305 308 303 296 292 291 293 300 309 315 320 318 316 312 299 307 308 299 292 291 301 302 304 310
254 251 246 241 239 237 237 238 236 235 232 232 232 238 242 244 242 242 243 248 247 254 253 253 249 253 258 259 262 263 265 263 262 263 261 266 275 278 280 282 284 284 286 286 286 292 300 304 304 304 307 308 312 309 303 302 297 299 304 309 309 307 307 305 301 298 297 298 307 311 312 318 305 316 318 306 295 303 303 308 310 307 306 318 329
255 253 252 252 249 245 243 240 239 238 237 236 234 236 249 253 250 251 251 253 257 261 262 265 263 260 260 266 266 264 270 268 263 263 265 267 272 277 276 278 280 281 283 284 286 293 294 291 291 290 294 309 316 308 307 306 302 304 302 305 306 308 306 304 306 304 304 304 307 308 308 307 315 307 303 307 306 315 317 310 315 318 321 317 325
254 255 260 261 254 247 245 242 242 241 239 237 236 236 238 251 259 260 259 252 252 255 260 262 267 268 266 265 265 268 269 267 262 279 282 274 271 270 270 271 274 275 278 281 284 287 290 287 282 279 276 279 293 305 313 319 318 301 308 305 304 306 308 310 308 306 305 307 313 309 305 315 317 313 315 316 316 309 301 298 300 312 308 310 318
250 259 263 256 251 244 240 240 241 243 240 239 237 238 239 239 242 252 254 251 255 256 257 258 257 261 268 266 265 262 255 251 251 252 254 255 263 268 270 267 268 272 276 280 284 276 268 274 273 267 267 265 268 264 278 291 297 294 300 302 304 304 305 305 308 307 305 307 307 307 312 316 316 311 311 312 307 305 309 309 309 301 297 296 299
249 249 242 240 243 244 243 243 245 244 244 245 246 246 246 245 244 247 248 250 246 247 252 255 252 254 254 260 259 254 252 247 252 255 257 260 261 264 267 267 261 257 264 270 266 268 272 274 271 270 269 271 270 267 266 271 279 286 289 292 298 305 305 303 303 302 304 305 306 310 310 312 309 304 305 300 303 302 304 303 305 300 297 297 300
244 241 237 238 240 245 247 249 249 249 245 244 244 246 249 251 251 251 255 253 250 250 251 250 252 251 255 257 258 254 250 246 249 255 259 261 262 263 262 264 270 274 268 267 267 268 268 268 266 263 265 261 267 269 269 269 268 275 282 286 292 300 301 298 296 298 298 301 305 304 306 304 301 302 301 302 303 304 300 297 297 296 301 299 299
243 241 238 237 237 238 240 244 248 248 247 246 245 245 246 247 248 251 254 256 259 256 254 256 257 259 261 262 260 258 258 252 250 253 258 263 266 266 268 272 268 267 269 268 269 269 269 271 270 267 265 265 266 266 269 271 271 272 272 273 274 277 279 279 281 285 295 299 298 297 298 300 302 302 299 297 299 299 296 300 298 297 295 298 297
227 238 239 237 239 240 241 244 247 248 250 250 248 246 247 248 248 250 257 262 262 259 258 258 256 257 260 262 263 259 256 249 250 253 257 261 265 267 264 266 271 269 268 268 270 272 273 273 272 271 268 267 265 263 270 271 272 273 273 274 275 277 276 276 278 283 288 290 292 295 298 298 300 298 297 297 300 300 302 304 302 300 297 296 294
234 229 230 228 229 232 237 241 245 248 250 252 252 249 247 247 250 249 251 251 252 252 247 247 251 253 253 258 259 258 253 249 247 246 251 259 266 267 274 273 273 271 269 269 271 272 274 274 275 273 271 269 264 260 265 273 273 274 274 275 276 277 275 278 280 277 278 280 283 286 286 285 289 295 296 295 290 288 288 289 289 289 287 283 282
235 234 233 231 233 234 234 234 232 234 240 247 251 254 254 252 250 249 253 254 254 250 249 246 246 248 247 246 250 251 250 244 244 243 243 249 262 269 269 269 269 269 268 269 271 272 272 273 273 273 270 267 262 259 260 269 273 274 276 276 278 278 274 275 275 272 265 262 266 271 280 290 292 291 287 284 285 286 285 282 280 282 280 277 279
220 229 232 231 230 232 236 238 235 234 236 241 247 250 253 256 257 257 262 263 258 254 253 252 249 248 247 246 245 248 248 243 242 243 243 246 257 268 271 271 270 270 269 266 267 270 274 276 272 269 269 266 258 258 257 267 272 273 275 278 277 275 273 273 274 272 266 268 268 275 282 284 285 287 286 280 271 271 277 277 282 281 279 279 nan
226 229 231 228 228 229 231 236 240 240 245 244 248 259 266 265 262 261 261 261 260 256 254 255 255 251 250 250 251 251 249 245 242 244 245 245 253 269 275 276 276 274 274 270 265 266 267 272 274 275 276 273 266 262 258 263 268 269 273 275 276 275 274 273 273 271 270 269 269 274 274 275 277 279 276 268 266 267 nan 271 272 275 nan nan nan
230 233 234 233 232 232 229 230 235 243 252 257 257 256 255 253 249 249 255 259 261 258 256 256 259 257 256 255 253 253 254 250 246 245 248 250 251 268 276 280 280 279 277 278 277 274 273 271 270 271 274 276 273 269 264 260 264 265 269 273 274 274 274 272 274 273 273 274 274 273 274 274 274 275 274 273 nan nan nan nan nan nan nan nan nan
233 234 232 233 236 235 231 232 234 238 251 256 256 256 255 254 255 255 261 263 264 263 263 263 261 259 257 257 257 255 256 255 249 246 245 245 246 264 278 279 279 280 280 281 283 282 280 276 273 272 272 270 270 271 270 266 263 264 265 270 272 272 271 nan nan nan 271 272 273 273 273 272 nan nan nan nan nan nan nan nan nan nan nan nan nan
234 239 240 235 236 238 236 238 240 242 247 253 255 257 257 257 260 272 267 267 273 273 270 268 267 266 263 259 257 256 253 253 252 245 244 245 245 240 260 268 276 282 280 280 279 279 281 282 278 276 272 267 263 266 268 267 266 265 262 264 266 270 273 nan nan nan nan 272 274 273 272 270 nan nan nan nan nan nan nan nan nan nan nan nan nan
235 242 245 240 237 238 237 238 240 241 244 245 248 250 251 263 265 265 270 274 276 274 270 269 270 269 265 259 256 255 253 252 248 248 246 248 246 246 245 250 261 272 277 276 274 277 282 285 283 282 277 269 261 260 265 268 269 266 263 263 nan nan nan nan nan nan nan nan nan nan nan nan nan nan nan nan nan nan nan nan nan nan nan nan nan
240 244 246 243 241 240 239 241 244 246 249 250 248 246 244 245 252 262 270 273 273 268 263 264 263 263 263 263 261 260 258 258 256 255 254 251 250 247 245 245 245 254 257 260 258 264 266 259 258 275 283 278 266 258 261 267 269 265 263 nan nan nan nan nan nan nan nan nan nan nan nan nan nan nan nan nan nan nan nan nan nan nan nan nan nan
246 247 246 247 246 243 241 242 245 249 251 253 254 253 251 248 249 249 256 260 261 261 259 258 258 259 262 265 265 260 255 256 256 257 256 253 250 248 nan 244 246 243 246 245 254 261 261 247 236 268 281 279 270 263 258 259 267 266 nan nan nan nan nan nan nan nan nan nan nan nan nan nan nan nan nan nan nan nan nan nan nan nan nan nan nan
nan 248 250 251 251 253 252 249 247 246 248 249 250 250 252 252 252 252 255 255 254 255 258 257 257 260 264 264 261 256 253 251 250 250 251 251 nan nan nan nan 247 239 236 250 251 258 261 252 251 268 276 273 268 261 259 258 258 nan nan nan nan nan nan nan nan nan nan nan nan nan nan nan nan nan nan nan nan nan nan nan nan nan nan nan nan
nan nan nan nan 253 253 254 255 254 250 246 247 249 248 247 248 251 nan 251 257 260 260 260 258 258 262 263 260 257 255 252 nan nan nan nan nan nan nan nan nan nan nan nan 250 253 258 262 262 263 266 272 272 266 262 259 256 nan nan nan nan nan nan nan nan nan nan nan nan nan nan nan nan nan nan nan nan nan nan nan nan nan nan nan nan nan
nan nan nan nan nan nan nan 255 253 250 248 248 247 248 248 249 248 246 nan 249 nan nan nan nan 260 257 256 257 258 257 255 nan nan nan nan nan nan nan nan 243 243 nan nan nan nan nan nan 260 263 267 270 nan nan nan nan nan nan nan nan nan nan nan nan nan nan nan nan nan nan nan nan nan nan nan nan nan nan nan nan nan nan nan nan nan nan
nan nan nan nan nan nan nan nan nan nan 250 248 248 249 249 249 252 252 248 252 251 254 262 262 nan nan nan 260 261 260 nan nan nan nan nan 247 246 246 nan nan nan nan nan nan nan nan nan nan 260 262 263 nan nan nan nan nan nan nan nan nan nan nan nan nan nan nan nan nan nan nan nan nan nan nan nan nan nan nan nan nan nan nan nan nan nan
nan nan nan nan nan nan nan nan nan nan nan nan 251 250 248 249 248 250 250 243 245 nan 255 257 nan nan nan nan nan nan nan nan nan nan nan 244 nan nan nan nan nan nan nan nan nan nan nan nan nan nan nan nan nan nan nan nan nan nan nan nan nan nan nan nan nan nan nan nan nan nan nan nan nan nan nan nan nan nan nan nan nan nan nan nan nan
nan nan nan nan nan nan nan nan nan nan nan nan nan nan 251 247 245 245 246 247 248 249 253 255 253 nan nan nan nan nan nan nan nan nan nan 245 nan nan nan nan nan nan nan nan nan nan nan nan nan nan nan nan nan nan nan nan nan nan nan nan nan nan nan nan nan nan nan nan nan nan nan nan nan nan nan nan nan nan nan nan nan nan nan nan nan
nan nan nan nan nan nan nan nan nan nan nan nan nan nan nan nan nan nan nan nan nan nan nan nan nan nan nan nan nan nan nan nan nan nan nan nan nan nan nan nan nan nan nan nan nan nan nan nan nan nan nan nan nan nan nan nan nan nan nan nan nan nan nan nan nan nan nan nan nan nan nan nan nan nan nan nan nan nan nan nan nan nan nan nan nan
nan nan nan nan nan nan nan nan nan nan nan nan nan nan nan nan nan nan nan nan nan nan nan nan nan nan nan nan nan nan nan nan nan nan nan 240 239 nan nan nan nan nan nan nan nan nan nan nan nan nan nan nan nan nan nan nan nan nan nan nan nan nan nan nan nan nan nan nan nan nan nan nan nan nan nan nan nan nan nan nan nan nan nan nan nan
nan nan nan nan nan nan nan nan nan nan nan nan nan nan nan nan nan nan nan nan nan nan nan nan nan nan nan nan nan nan nan nan nan nan nan nan nan nan nan nan nan nan nan nan nan nan nan nan nan nan nan nan nan nan nan nan nan nan nan nan nan nan nan nan nan nan nan nan nan nan nan nan nan nan nan nan nan nan nan nan nan nan nan nan nan
nan 256 262 nan nan nan nan nan nan nan nan nan nan nan nan nan nan nan nan nan nan nan nan nan nan nan nan nan nan nan nan nan nan nan nan nan nan nan nan nan nan nan nan nan nan nan nan nan nan nan nan nan nan nan nan nan nan nan nan nan nan nan nan nan nan nan nan nan nan nan nan nan nan nan nan nan nan nan nan nan nan nan nan nan nan
253 252 nan nan nan nan nan nan nan nan nan nan nan nan nan nan nan nan nan nan nan nan nan nan nan nan nan nan nan nan nan nan nan nan nan nan nan nan nan nan nan nan nan nan nan nan nan nan nan nan nan nan nan nan nan nan nan nan nan nan nan nan nan nan nan nan nan nan nan nan nan nan nan nan nan nan nan nan nan nan nan nan nan nan nan
nan nan nan nan nan nan nan nan nan nan nan nan nan nan nan nan nan nan nan nan nan nan nan nan nan nan nan nan nan nan nan nan nan nan nan nan nan nan nan nan nan nan nan nan nan nan nan nan nan nan nan nan nan nan nan nan nan nan nan nan nan nan nan nan nan nan nan nan nan nan nan nan nan nan nan nan nan nan nan nan nan nan nan nan nan
nan nan nan nan nan nan nan nan nan nan nan nan nan nan nan nan nan nan nan nan nan nan nan nan nan nan nan nan nan nan nan nan nan nan nan nan nan nan nan nan nan nan nan nan nan nan nan nan nan nan nan nan nan nan nan nan nan nan nan nan nan nan nan nan nan nan nan nan nan nan nan nan nan nan nan nan nan nan nan nan nan nan nan nan nan
nan nan nan nan nan nan nan nan nan nan nan nan nan nan nan nan nan nan nan nan nan nan nan nan nan nan nan nan nan nan nan nan nan nan nan nan nan nan nan nan nan nan nan nan nan nan nan nan nan nan nan nan nan nan nan nan nan nan nan nan nan nan nan nan nan nan nan nan nan nan nan nan nan nan nan nan nan nan nan nan nan nan nan nan nan
nan nan nan nan nan nan nan nan nan nan nan nan nan nan nan nan nan nan nan nan nan nan nan nan nan nan nan nan nan nan nan nan nan nan nan nan nan nan nan nan nan nan nan nan nan nan nan nan nan nan nan nan nan nan nan nan nan nan nan nan nan nan nan nan nan nan nan nan nan nan nan nan nan nan nan nan nan nan nan nan nan nan nan nan nan
nan nan nan nan nan nan nan nan nan nan nan nan nan nan nan nan nan nan nan nan nan nan nan nan nan nan nan nan nan nan nan nan nan nan nan nan nan nan nan nan nan nan nan nan nan nan nan nan nan nan nan nan nan nan nan nan nan nan nan nan nan nan nan nan nan nan nan nan nan nan nan nan nan nan nan nan nan nan nan nan nan nan nan nan nan
nan nan nan nan nan nan nan nan nan nan nan nan nan nan nan nan nan nan nan nan nan nan nan nan nan nan nan nan nan nan nan nan nan nan nan nan nan nan nan nan nan nan nan nan nan nan nan nan nan nan nan nan nan nan nan nan nan nan nan nan nan nan nan nan nan nan nan nan nan nan nan nan nan nan nan nan nan nan nan nan nan nan nan nan nan
nan nan nan nan nan nan nan nan nan nan nan nan nan nan nan nan nan nan nan nan nan nan nan nan nan nan nan nan nan nan nan nan nan nan nan nan nan nan nan nan nan nan nan nan nan nan nan nan nan nan nan nan nan nan nan nan nan nan nan nan nan nan nan nan nan nan nan nan nan nan nan nan nan nan nan nan nan nan nan nan nan nan nan nan nan
nan nan nan nan nan nan nan nan nan nan nan nan nan nan nan nan nan nan nan nan nan nan nan nan nan nan nan nan nan nan nan nan nan nan nan nan nan nan nan nan nan nan nan nan nan nan nan nan nan nan nan nan nan nan nan nan nan nan nan nan nan nan nan nan nan nan nan nan nan nan nan nan nan nan nan nan nan nan nan nan nan nan nan nan nan
nan nan nan nan nan nan nan nan nan nan nan nan nan nan nan nan nan nan nan nan nan nan nan nan nan nan nan nan nan nan nan nan nan nan nan nan nan nan nan nan nan nan nan nan nan nan nan nan nan nan nan nan nan nan nan nan nan nan nan nan nan nan nan nan nan nan nan nan nan nan nan nan nan nan nan nan nan nan nan nan nan nan nan nan nan
nan nan nan nan nan nan nan nan nan nan nan nan nan nan nan nan nan nan nan nan nan nan nan nan nan nan nan nan nan nan nan nan nan nan nan nan nan nan nan nan nan nan nan nan nan nan nan nan nan nan nan nan nan nan nan nan nan nan nan nan nan nan nan nan nan nan nan nan nan nan nan nan nan nan nan nan nan nan nan nan nan nan nan nan nan
nan nan nan nan nan nan nan nan nan nan nan nan nan nan nan nan nan nan nan nan nan nan nan nan nan nan nan nan nan nan nan nan nan nan nan nan nan nan nan nan nan nan nan nan nan nan nan nan nan nan nan nan nan nan nan nan nan nan nan nan nan nan nan nan nan nan nan nan nan nan nan nan nan nan nan nan nan nan nan nan nan nan nan nan nan
nan nan nan nan nan nan nan nan nan nan nan nan nan nan nan nan nan nan nan nan nan nan nan nan nan nan nan nan nan nan nan nan nan nan nan nan nan nan nan nan nan nan nan nan nan nan nan nan nan nan nan nan nan nan nan nan nan nan nan nan nan nan nan nan nan nan nan nan nan nan nan nan nan nan nan nan nan nan nan nan nan nan nan nan nan
nan nan nan nan nan nan nan nan nan nan nan nan nan nan nan nan nan nan nan nan nan nan nan nan nan nan nan nan nan nan nan nan nan nan nan nan nan nan nan nan nan nan nan nan nan nan nan nan nan nan nan nan nan nan nan nan nan nan nan nan nan nan nan nan nan nan nan nan nan nan nan nan nan nan nan nan nan nan nan nan nan nan nan nan nan
nan nan nan nan nan nan nan nan nan nan nan nan nan nan nan nan nan nan nan nan nan nan nan nan nan nan nan nan nan nan nan nan nan nan nan nan nan nan nan nan nan nan nan nan nan nan nan nan nan nan nan nan nan nan nan nan nan nan nan nan nan nan nan nan nan nan nan nan nan nan nan nan nan nan nan nan nan nan nan nan nan nan nan nan nan
nan nan nan nan nan nan nan nan nan nan nan nan nan nan nan nan nan nan nan nan nan nan nan nan nan nan nan nan nan nan nan nan nan nan nan nan nan nan nan nan nan nan nan nan nan nan nan nan nan nan nan nan nan nan nan nan nan nan nan nan nan nan nan nan nan nan nan nan nan nan nan nan nan nan nan nan nan nan nan nan nan nan nan nan nan